User: anonymous   Login
Location: Unspecified
(0.0000°N, 0.0000°E)
Time: 03:24:41
(UTC+02:00)
Language:

Cosmos 1892 Rocket - Orbit

View from above orbital plane
View from above orbital plane
View from above satellite
View from above satellite

Ground track
Ground track

The orbit data is extracted from the following two-line orbital elements,

1 18422U 87088B   15090.88987303  .00000773  00000-0  92817-4 0  9997
2 18422 082.5132 214.1559 0018852 217.6706 266.5741 14.82664085482032
Epoch (UTC): 31 March 2015 21:21:25
Eccentricity: 0.0018852
inclination: 82.5132°
perigee height: 608 km
apogee height: 634 km
right ascension of ascending node: 214.1559°
argument of perigee: 217.6706°
revolutions per day: 14.82664085
mean anomaly at epoch: 266.5741°
orbit number at epoch: 48203

The dashed part of the orbit path shows where the satellite is in the earth's shadow,  

DLR